FW3337 Weather Reports


Display with metric or nautical units.
time (UTC)temp
F
wind
direction
speed
MPH
gust
MPH
rain 1hr
in
rain 24hr
in
rain mn
in
humidity
%
barometer
mb
20260904200012 81 212 1.0 5.0 0.00 0.06 0.06 62 1010.2
20260904194511 80 264 0.0 3.0 0.00 0.06 0.06 63 1010.2
20260904193010 80 278 0.0 4.0 0.00 0.06 0.06 67 1010.3
20260904191509 80 307 0.0 1.0 0.00 0.06 0.06 67 1010.4
20260904190009 80 18 0.0 2.0 0.00 0.06 0.06 67 1010.5
20260904184512 80 18 0.0 1.0 0.00 0.06 0.06 66 1010.7
20260904183007 80 29 0.0 1.0 0.00 0.06 0.06 67 1010.7
20260904181507 81 15 0.0 4.0 0.00 0.06 0.06 64 1010.7
20260904180007 82 154 0.0 3.0 0.00 0.06 0.06 60 1010.8
20260904174504 82 50 0.0 3.0 0.00 0.06 0.06 62 1010.6
20260904173001 81 291 1.0 5.0 0.00 0.06 0.06 63 1010.7
20260904171600 81 66 0.0 7.0 0.00 0.06 0.06 64 1010.7
20260904170059 80 293 2.0 7.0 0.00 0.06 0.06 65 1010.8
20260904164600 80 312 0.0 10.0 0.00 0.07 0.06 65 1011.0
20260904163058 81 152 0.0 7.0 0.00 0.07 0.06 67 1010.8
20260904161602 80 60 0.0 6.0 0.00 0.07 0.06 68 1010.9
20260904160054 80 314 1.0 10.0 0.00 0.07 0.06 67 1011.0
20260904154552 79 303 1.0 6.0 0.00 0.07 0.06 70 1011.0
20260904153052 79 305 1.0 6.0 0.00 0.07 0.06 70 1011.1
20260904151551 79 114 2.0 5.0 0.00 0.07 0.06 71 1011.5
20260904150047 79 68 1.0 6.0 0.00 0.07 0.06 73 1011.4
20260904144546 78 39 0.0 5.0 0.00 0.07 0.06 76 1011.2
20260904143042 77 329 0.0 3.0 0.00 0.07 0.06 78 1011.2
20260904141551 77 83 0.0 2.0 0.00 0.07 0.06 78 1011.1
20260904140037 76 74 0.0 3.0 0.00 0.07 0.06 81 1011.0
20260904134548 75 293 0.0 4.0 0.00 0.07 0.06 82 1011.1
20260904133028 74 122 0.0 3.0 0.00 0.07 0.06 87 1011.1
20260904131524 73 293 0.0 6.0 0.00 0.07 0.06 90 1011.1
20260904130022 72 289 1.0 7.0 0.00 0.07 0.06 89 1011.1
20260904124521 72 220 0.0 5.0 0.00 0.07 0.06 92 1011.1
20260904123019 71 174 0.0 2.0 0.00 0.07 0.06 95 1011.2
20260904121518 70 105 0.0 3.0 0.00 0.07 0.06 97 1011.1
20260904120021 70 141 0.0 3.0 0.00 0.07 0.06 97 1011.0
20260904114517 70 135 0.0 2.0 0.00 0.07 0.06 98 1011.1
20260904113017 70 243 0.0 3.0 0.00 0.07 0.06 98 1011.0
20260904111515 69 242 0.0 3.0 0.00 0.07 0.06 98 1010.6
20260904110015 69 266 0.0 2.0 0.00 0.07 0.06 98 1010.6
20260904104515 69 267 1.0 4.0 0.00 0.07 0.06 98 1010.5
20260904103014 69 216 0.0 3.0 0.00 0.07 0.06 98 1010.4
20260904101513 69 216 0.0 2.0 0.00 0.07 0.06 97 1010.2
20260904100012 69 216 0.0 0.0 0.00 0.07 0.06 98 1010.0
20260904094521 69 216 0.0 1.0 0.00 0.07 0.06 97 1009.9
20260904093010 70 216 0.0 0.0 0.00 0.07 0.06 97 1009.7
20260904091509 70 216 0.0 1.0 0.00 0.07 0.06 97 1009.7
20260904090024 71 216 0.0 1.0 0.00 0.07 0.06 98 1009.7
20260904084505 71 216 0.0 0.0 0.00 0.07 0.06 97 1009.8
20260904083003 71 216 0.0 1.0 0.00 0.07 0.06 98 1009.8
20260904081505 71 216 0.0 0.0 0.00 0.07 0.06 98 1009.7
20260904080002 71 216 0.0 0.0 0.00 0.07 0.06 98 1009.5
20260904074501 72 216 0.0 1.0 0.00 0.07 0.06 98 1009.6
20260904073101 72 216 0.0 8.0 0.00 0.07 0.06 98 1009.9
20260904071620 71 246 0.0 0.0 0.00 0.07 0.06 98 1009.9
20260904070116 71 247 0.0 0.0 0.00 0.07 0.06 97 1009.8
20260904064656 72 247 0.0 1.0 0.00 0.08 0.06 98 1010.0
20260904063104 72 247 0.0 0.0 0.00 0.08 0.06 98 1010.2
20260904061553 72 247 0.0 0.0 0.00 0.08 0.06 98 1010.2
20260904060053 72 247 0.0 0.0 0.00 0.08 0.06 97 1010.0
20260904054552 72 247 0.0 0.0 0.00 0.15 0.06 97 1010.3
20260904053059 72 247 0.0 0.0 0.00 0.15 0.06 97 1010.8
20260904051549 72 247 0.0 1.0 0.06 0.15 0.06 97 1010.7
20260904050047 72 247 0.0 0.0 0.06 0.15 0.06 97 1010.7
20260904044546 72 247 0.0 0.0 0.06 0.33 0.06 97 1010.7
20260904043055 72 246 0.0 0.0 0.06 0.33 0.06 97 1010.9
20260904041541 72 247 0.0 3.0 0.00 0.27 0.00 97 1011.1
20260904040050 72 247 0.0 0.0 0.00 0.27 0.00 97 1011.3
20260904034536 72 247 0.0 0.0 0.00 0.27 0.27 97 1011.2
20260904033040 72 247 0.0 0.0 0.00 0.27 0.27 96 1011.1
20260904031547 73 247 0.0 0.0 0.00 0.27 0.27 97 1010.7
20260904030033 72 247 0.0 0.0 0.00 0.27 0.27 96 1011.2
20260904024534 73 247 0.0 0.0 0.00 0.27 0.27 96 1011.3
20260904023034 73 247 0.0 0.0 0.00 0.27 0.27 96 1011.4
20260904021532 73 247 0.0 0.0 0.00 0.27 0.27 96 1011.8
20260904020031 73 247 0.0 0.0 0.00 0.27 0.27 96 1011.9
20260904014531 73 247 0.0 0.0 0.00 0.27 0.27 96 1012.1
20260904013030 73 247 0.0 0.0 0.00 0.27 0.27 95 1012.3
20260904011529 73 247 0.0 0.0 0.00 0.27 0.27 95 1012.0
20260904010029 74 247 0.0 0.0 0.00 0.27 0.27 95 1012.1
20260904004531 74 247 0.0 0.0 0.00 0.27 0.27 94 1011.7
20260904003030 75 247 0.0 0.0 0.00 0.27 0.27 94 1011.9
20260904001526 75 247 0.0 0.0 0.00 0.27 0.27 93 1011.8
20260904000027 76 247 0.0 0.0 0.00 0.27 0.27 92 1011.6
20260903234526 77 247 0.0 0.0 0.00 0.27 0.27 91 1011.4
20260903233025 77 247 0.0 0.0 0.00 0.27 0.27 90 1011.3
20260903231526 78 247 0.0 0.0 0.00 0.27 0.27 88 1011.0
20260903230124 79 247 0.0 0.0 0.00 0.27 0.27 87 1011.3
20260903224522 80 247 0.0 0.0 0.00 0.27 0.27 86 1011.3
20260903223026 81 247 0.0 0.0 0.00 0.27 0.27 84 1011.5
20260903221521 82 247 0.0 0.0 0.00 0.27 0.27 83 1011.5
20260903220026 82 247 0.0 0.0 0.00 0.27 0.27 80 1011.5
20260903214528 83 247 0.0 0.0 0.00 0.27 0.27 78 1011.5
20260903213027 83 247 0.0 0.0 0.00 0.27 0.27 79 1011.3
20260903211529 83 247 0.0 2.0 0.00 0.27 0.27 75 1011.2
20260903210020 83 247 0.0 1.0 0.00 0.27 0.27 74 1011.4
20260903204518 83 247 0.0 2.0 0.00 0.27 0.27 74 1011.4
20260903203016 83 247 0.0 1.0 0.00 0.27 0.27 75 1011.5
20260903201529 83 246 0.0 1.0 0.00 0.27 0.27 76 1011.4